Weather History for Andalusia, AL

Change the Weather History Date:

Monday, June 24, 2013

  Actual Average (KCEW) Record (KCEW)
Temperature  
Mean Temperature 82 °F -  
Max Temperature 91 °F 90 °F 99 °F (2006)
Min Temperature 73 °F 69 °F 57 °F (2001)
Cooling Degree Days 17    
Growing Degree Days 32 (Base 50)    
Moisture  
Dew Point 71 °F    
Average Humidity 80    
Maximum Humidity 91    
Minimum Humidity 48    
Precipitation  
Precipitation 0.06 in - - ()
Sea Level Pressure  
Sea Level Pressure 30.14 in    
Wind  
Wind Speed 3 mph (SE)    
Max Wind Speed 18 mph    
Max Gust Speed 26 mph    
Visibility 10 miles    
Events Rain , Thunderstorm    
Averages and records for this station are not official NWS values.
T = Trace of Precipitation, MM = Missing Value Source: NWS Daily Summary

Daily Weather History Graph

Daily Weather History Graph

Search for Another Location

Airport:

Trip Planner

Search our weather history database for the weather conditions in past years. The results will help you decide how hot, cold, wet, or windy it might be!

Date:

Astronomy

Jun. 24, 2013 Rise Set
Actual Time 5:42 AM CDT 7:53 PM CDT
Civil Twilight 5:14 AM CDT 8:21 PM CDT
Nautical Twilight 4:40 AM CDT 8:55 PM CDT
Astronomical Twilight 4:03 AM CDT 9:32 PM CDT
Moon 9:04 PM CDT (6/24) 7:03 AM CDT (6/24)
Length of Visible Light 15h 06m
Length of Day
14h 11m
Full, 98% of the Moon is Illuminated
Jun 24
Full
Jun 29
Last Quarter
Jul 8
New
Jul 15
First Quarter
Jul 22
Full

Hourly Weather History & Observations

Time (CDT) Temp. Heat Index Dew Point Humidity Pressure Visibility Wind Dir Wind Speed Gust Speed Precip Events Conditions
12:56 AM 75.0 °F - 72.0 °F 90% 30.12 in 10.0 mi South 3.5 mph - N/A   Clear
1:56 AM 75.0 °F - 72.0 °F 90% 30.12 in 10.0 mi Calm Calm - N/A   Clear
2:56 AM 75.0 °F - 71.1 °F 87% 30.11 in 10.0 mi Calm Calm - N/A   Clear
3:56 AM 73.9 °F - 71.1 °F 91% 30.12 in 10.0 mi SE 3.5 mph - N/A   Clear
4:56 AM 73.9 °F - 71.1 °F 91% 30.13 in 10.0 mi Calm Calm - N/A   Clear
5:56 AM 73.9 °F - 71.1 °F 91% 30.14 in 10.0 mi Calm Calm - N/A   Partly Cloudy
6:54 AM 75.2 °F - 71.6 °F 89% 30.17 in 10.0 mi SE 3.5 mph - N/A   Partly Cloudy
6:56 AM 75.0 °F - 72.0 °F 90% 30.16 in 10.0 mi SE 5.8 mph - N/A   Partly Cloudy
7:19 AM 75.2 °F - 71.6 °F 89% 30.18 in 10.0 mi SSE 3.5 mph - N/A   Mostly Cloudy
7:37 AM 75.2 °F - 71.6 °F 89% 30.18 in 10.0 mi SE 4.6 mph - N/A   Mostly Cloudy
7:45 AM 75.2 °F - 71.6 °F 89% 30.19 in 10.0 mi SE 3.5 mph - N/A   Scattered Clouds
7:56 AM 77.0 °F - 72.0 °F 84% 30.18 in 10.0 mi SSE 3.5 mph - N/A   Clear
8:56 AM 79.0 °F - 73.0 °F 82% 30.18 in 10.0 mi SE 4.6 mph - N/A   Clear
9:56 AM 82.0 °F 87.9 °F 73.9 °F 76% 30.18 in 10.0 mi Calm Calm - N/A   Clear
10:56 AM 87.1 °F 92.8 °F 71.1 °F 59% 30.18 in 10.0 mi West 3.5 mph - N/A   Partly Cloudy
11:56 AM 88.0 °F 93.8 °F 71.1 °F 57% 30.16 in 10.0 mi Calm Calm - N/A   Scattered Clouds
12:56 PM 90.0 °F 96.4 °F 71.1 °F 54% 30.14 in 10.0 mi SSE 5.8 mph - N/A   Clear
1:56 PM 90.0 °F 95.4 °F 70.0 °F 52% 30.13 in 10.0 mi Calm Calm - N/A   Scattered Clouds
2:56 PM 91.0 °F 95.6 °F 69.1 °F 48% 30.10 in 10.0 mi Calm Calm - N/A   Overcast
3:48 PM 86.0 °F 90.4 °F 69.8 °F 58% 30.12 in 10.0 mi NNW 18.4 mph 26.5 mph N/A Thunderstorm Thunderstorm
3:56 PM 82.0 °F 84.9 °F 68.0 °F 62% 30.10 in 10.0 mi North 15.0 mph - N/A Thunderstorm Thunderstorm
4:09 PM 78.8 °F - 71.6 °F 78% 30.11 in 10.0 mi North 16.1 mph 24.2 mph 0.03 in Rain , Thunderstorm Heavy Thunderstorms and Rain
4:56 PM 75.9 °F - 70.0 °F 82% 30.10 in 10.0 mi ESE 8.1 mph - 0.04 in Rain , Thunderstorm Light Thunderstorms and Rain
5:17 PM 75.2 °F - 69.8 °F 83% 30.12 in 10.0 mi SE 3.5 mph - 0.00 in   Partly Cloudy
5:56 PM 75.0 °F - 70.0 °F 84% 30.12 in 10.0 mi SSE 4.6 mph - 0.02 in Rain Light Rain
6:56 PM 75.9 °F - 71.1 °F 85% 30.10 in 10.0 mi Calm Calm - 0.00 in   Clear
7:56 PM 75.0 °F - 71.1 °F 87% 30.12 in 10.0 mi Calm Calm - N/A   Clear
8:56 PM 73.9 °F - 71.1 °F 91% 30.12 in 10.0 mi Calm Calm - N/A   Clear
9:56 PM 73.9 °F - 70.0 °F 87% 30.13 in 10.0 mi Calm Calm - N/A   Clear
10:56 PM 73.0 °F - 70.0 °F 90% 30.13 in 10.0 mi Calm Calm - N/A   Clear
11:56 PM 73.0 °F - 69.1 °F 87% 30.14 in 10.0 mi Calm Calm - N/A   Clear